Regional Weather Roundup
Issued by NWS

Home | Current Version | Previous Version | Text Only | Print | Product List | Glossary Off
Versions: 1 2 3 4 5 6 7 8 9 10 11 12 13 14 15 16 17 18 19 20 21 22 23 24 25 26 27 28 29 30 31 32 33 34 35 36 37 38 39 40 41 42 43 44 45 46 47 48 49 50

000
ASUS43 KLMK 251302
RWRKY
KENTUCKY REGIONAL WEATHER ROUNDUP
NATIONAL WEATHER SERVICE LOUISVILLE KY
900 AM EDT MON SEP 25 2017

NOTE "FAIR" INDICATES FEW OR NO CLOUDS BELOW 12,000 FEET
WITH NO SIGNIFICANT WEATHER AND/OR OBSTRUCTIONS TO VISIBILITY.

KYZ001>023-026-027-061>063-070>075-251400-
WESTERN AND SOUTH CENTRAL KENTUCKY

CITY           SKY/WX    TMP DP  RH WIND       PRES   REMARKS
PADUCAH        SUNNY     68  64  87 CALM      30.03R
HENDERSON      SUNNY     71  68  90 CALM      30.04R
OWENSBORO      SUNNY     70  67  90 CALM      30.04S
HOPKINSVILLE   SUNNY     69  69 100 E3        30.05R
BOWLING GREEN  SUNNY     69  69 100 CALM      30.06R
GLASGOW        CLOUDY   N/A N/A N/A CALM      30.06S FOG
$$

KYZ024-025-028>034-038-045-046-053-251400-
NORTH CENTRAL KENTUCKY

CITY           SKY/WX    TMP DP  RH WIND       PRES   REMARKS
LOUISVILLE/SDF MOSUNNY   71  65  81 CALM      30.05R
LOUISVILLE/LOU SUNNY     70  66  87 CALM      30.06R
FORT KNOX      SUNNY     68  66  94 CALM      30.04S
$$

KYZ035>037-039>044-047>052-055>060-089>105-251400-
NORTHEAST KENTUCKY

CITY           SKY/WX    TMP DP  RH WIND       PRES   REMARKS
LEXINGTON      MOSUNNY   66  62  87 CALM      30.08R
COVINGTON      MOSUNNY   68  63  84 CALM      30.07R
FRANKFORT      SUNNY     64  60  87 CALM      30.06R
$$

KYZ054-064>069-076>088-106>120-251400-
SOUTHEAST KENTUCKY

CITY           SKY/WX    TMP DP  RH WIND       PRES   REMARKS
JACKSON        PTSUNNY   66  62  87 CALM      30.09R
LONDON         MOSUNNY   64  61  90 CALM      30.09R
SOMERSET       MOSUNNY   63  63 100 CALM      30.09S
MIDDLESBORO    CLOUDY    60  60 100 CALM      30.12R FOG
MONTICELLO     PTSUNNY   63  63 100 VRB3      30.09S FOG
$$




USA.gov is the U.S. government's official web portal to all federal, state and local government web resources and services.